EB1TK-13 Weather Reports


time (UTC)temp
F
wind
direction
speed
knots
gust
knots
rain 1hr
in
rain 24hr
in
rain mn
in
humidity
%
barometer
mb
20260508080215 59 0.0 0.0 0.00 0.00 0.00 88 1007.3
20260508075215 59 0.0 0.0 0.00 0.00 0.00 89 1007.3
20260508074216 58 221 0.0 0.9 0.00 0.00 0.00 89 1007.2
20260508073216 58 221 0.0 0.9 0.00 0.00 0.00 89 1007.1
20260508072217 58 221 1.7 2.6 0.00 0.00 0.00 88 1007.0
20260508071230 57 0.0 0.0 0.00 0.00 0.00 89 1007.0
20260508070215 57 0.0 0.0 0.00 0.00 0.00 89 1007.1
20260508065215 57 0.0 0.0 0.00 0.00 0.00 88 1007.1
20260508064216 58 0.0 0.0 0.00 0.00 0.00 88 1007.2
20260508063216 57 0.0 0.0 0.00 0.00 0.00 88 1007.1
20260508062216 57 221 1.7 2.6 0.00 0.00 0.00 88 1007.1
20260508061217 57 220 0.9 1.7 0.00 0.00 0.00 89 1007.1
20260508060217 57 220 0.9 1.7 0.00 0.00 0.00 89 1007.1
20260508055220 56 219 2.6 3.5 0.00 0.00 0.00 90 1007.2
20260508054215 56 219 3.5 3.5 0.00 0.00 0.00 90 1007.3
20260508053216 56 219 3.5 3.5 0.00 0.00 0.00 91 1007.2
20260508052216 56 221 2.6 3.5 0.00 0.00 0.00 91 1007.0
20260508051227 55 221 2.6 3.5 0.00 0.00 0.00 92 1007.0
20260508050217 55 221 2.6 2.6 0.00 0.00 0.00 91 1006.8
20260508045214 55 224 2.6 2.6 0.00 0.00 0.00 90 1006.9
20260508044226 56 224 2.6 2.6 0.00 0.00 0.00 90 1006.8
20260508043218 55 223 1.7 1.7 0.00 0.00 0.00 91 1006.9
20260508042216 56 223 2.6 3.5 0.00 0.00 0.00 91 1007.0
20260508041216 55 221 2.6 2.6 0.00 0.00 0.00 93 1007.1
20260508040216 55 221 2.6 3.5 0.00 0.00 0.00 94 1007.3
20260508035217 55 221 2.6 3.5 0.00 0.00 0.00 95 1007.3
20260508034215 54 219 2.6 3.5 0.00 0.00 0.00 95 1007.6
20260508033225 54 217 2.6 3.5 0.00 0.00 0.00 95 1007.6
20260508032215 54 217 2.6 3.5 0.00 0.00 0.00 95 1007.8
20260508031216 55 217 1.7 1.7 0.00 0.00 0.00 95 1007.9
20260508030216 55 217 0.9 1.7 0.00 0.00 0.00 95 1008.0
20260508025217 54 217 2.6 3.5 0.00 0.00 0.00 94 1008.1
20260508024217 56 0.0 0.0 0.00 0.00 0.00 95 1008.0
20260508023215 55 0.0 0.0 0.00 0.00 0.00 95 1008.1
20260508022215 55 0.0 0.0 0.00 0.00 0.00 95 1008.1
20260508021215 55 217 0.0 0.9 0.00 0.00 0.00 95 1008.2
20260508020216 56 217 0.9 2.6 0.00 0.00 0.00 95 1008.3
20260508015216 56 217 0.9 1.7 0.00 0.00 0.00 96 1008.2
20260508014217 56 217 0.9 1.7 0.00 0.00 0.00 96 1008.3
20260508013217 56 0.0 0.0 0.00 0.00 0.00 96 1008.3
20260508012215 56 217 2.6 2.6 0.00 0.00 0.00 96 1008.7
20260508011215 56 217 1.7 2.6 0.00 0.00 0.00 96 1008.8
20260508010216 55 217 1.7 2.6 0.00 0.00 0.00 96 1009.0
20260508005217 56 145 3.5 4.3 0.00 0.00 0.00 96 1008.7
20260508004216 56 0.0 0.0 0.00 0.00 0.00 96 1008.7
20260508003217 56 139 1.7 2.6 0.00 0.00 0.00 95 1008.9
20260508002217 56 0.0 0.0 0.00 0.00 0.00 96 1008.9
20260508001215 56 0.0 0.0 0.00 0.00 0.00 95 1009.0
20260508000215 56 0.0 0.0 0.00 0.00 0.00 96 1009.1
20260507235216 56 0.0 0.0 0.00 0.00 0.00 95 1009.1
20260507234216 57 0.0 0.0 0.00 0.00 0.00 95 1009.2
20260507233219 57 139 0.9 1.7 0.00 0.00 0.00 95 1009.4
20260507232217 57 137 1.7 2.6 0.00 0.00 0.00 95 1009.4
20260507231215 57 135 0.9 1.7 0.00 0.00 0.00 95 1009.6
20260507230215 57 0.0 0.0 0.00 0.00 0.00 95 1009.6
20260507225218 57 0.0 0.0 0.00 0.00 0.00 94 1009.6
20260507224218 57 0.0 0.0 0.00 0.00 0.00 95 1009.6
20260507223216 57 0.0 0.0 0.00 0.00 0.00 94 1009.5
20260507222216 57 109 1.7 2.6 0.00 0.00 0.00 94 1009.5
20260507221217 56 108 0.9 1.7 0.00 0.00 0.00 93 1009.6
20260507220215 58 105 0.0 0.9 0.00 0.00 0.00 93 1009.5
20260507215215 58 162 1.7 1.7 0.00 0.00 0.00 93 1009.4
20260507214215 58 0.0 0.0 0.00 0.00 0.00 93 1009.6
20260507213216 58 0.0 0.0 0.00 0.00 0.00 93 1009.8
20260507212216 58 0.0 0.0 0.00 0.00 0.00 93 1010.0
20260507211215 59 162 0.0 0.9 0.00 0.00 0.00 93 1010.0
20260507210215 58 0.0 0.0 0.00 0.00 0.00 92 1009.9
20260507205215 58 162 0.0 0.9 0.00 0.00 0.00 92 1009.9
20260507204215 59 162 0.9 1.7 0.00 0.00 0.00 92 1009.8
20260507203215 59 110 0.0 0.9 0.00 0.00 0.00 92 1009.7
20260507202216 59 113 0.9 1.7 0.00 0.00 0.00 91 1009.6
20260507201216 59 0.0 0.0 0.00 0.00 0.00 91 1009.7
20260507200222 59 0.0 0.0 0.00 0.00 0.00 91 1009.7
20260507195217 59 114 0.9 1.7 0.00 0.00 0.00 91 1009.5
20260507194217 60 129 0.9 1.7 0.00 0.00 0.00 91 1009.5
20260507193215 60 115 4.3 5.2 0.00 0.00 0.00 91 1009.4
20260507192218 60 111 6.1 7.0 0.00 0.00 0.00 90 1009.3
20260507191216 60 114 1.7 3.5 0.00 0.00 0.00 90 1009.2
20260507190216 60 107 5.2 7.0 0.00 0.00 0.00 90 1009.1
20260507185217 60 66 8.7 10.4 0.00 0.00 0.00 90 1008.9
20260507184217 60 80 7.8 8.7 0.00 0.00 0.00 90 1008.8
20260507183215 60 68 3.5 5.2 0.00 0.00 0.00 90 1008.8
20260507182215 60 70 3.5 7.0 0.00 0.00 0.00 90 1008.9
20260507181215 60 50 7.0 8.7 0.00 0.00 0.00 89 1009.0
20260507180216 60 73 7.0 10.4 0.00 0.00 0.00 89 1009.1
20260507175216 60 74 9.6 12.2 0.00 0.00 0.00 89 1009.0
20260507174217 60 85 7.8 10.4 0.00 0.00 0.00 88 1009.2
20260507173214 60 96 9.6 13.9 0.00 0.00 0.00 88 1009.3
20260507172215 60 90 9.6 14.8 0.00 0.00 0.00 87 1009.3
20260507171215 60 78 11.3 13.0 0.00 0.00 0.00 88 1009.3
20260507170223 60 81 9.6 12.2 0.00 0.00 0.00 87 1009.1
20260507165216 60 79 13.0 15.6 0.00 0.00 0.00 1009.0
20260507164216 60 89 9.6 13.9 0.00 0.00 0.00 87 1009.2
20260507163217 60 74 8.7 10.4 0.00 0.00 0.00 87 1009.0
20260507162215 61 63 13.0 17.4 0.00 0.00 0.00 86 1009.0
20260507161235 60 90 11.3 13.9 0.00 0.00 0.00 87 1008.8
20260507160215 61 62 12.2 13.9 0.00 0.00 0.00 87 1008.8
20260507155216 61 60 13.0 15.6 0.00 0.00 0.00 88 1008.8
20260507154216 60 65 13.0 15.6 0.00 0.00 0.00 87 1008.7
20260507153217 60 69 10.4 12.2 0.00 0.00 0.00 87 1008.8
20260507152217 60 82 7.8 9.6 0.00 0.00 0.00 87 1008.9
20260507151215 60 88 10.4 14.8 0.00 0.00 0.00 88 1009.0
20260507150215 61 67 8.7 10.4 0.00 0.00 0.00 87 1009.1
20260507145216 61 68 12.2 14.8 0.00 0.00 0.00 87 1008.9
20260507144216 61 59 12.2 13.9 0.00 0.00 0.00 88 1008.8
20260507143224 61 63 14.8 17.4 0.00 0.00 0.00 86 1008.8
20260507142217 61 78 13.0 16.5 0.00 0.00 0.00 85 1009.0
20260507141217 61 70 12.2 17.4 0.00 0.00 0.00 85 1008.9
20260507140215 61 63 10.4 13.0 0.00 0.00 0.00 84 1009.1
20260507135215 61 59 13.0 16.5 0.00 0.00 0.00 85 1009.0
20260507134216 60 57 15.6 16.5 0.00 0.00 0.00 86 1009.1
20260507133216 60 61 13.9 15.6 0.00 0.00 0.00 86 1009.2
20260507132216 60 61 15.6 17.4 0.00 0.00 0.00 85 1009.1
20260507131217 60 59 13.9 16.5 0.00 0.00 0.00 87 1009.2
20260507130222 60 60 13.0 14.8 0.00 0.00 0.00 87 1009.3
20260507125215 60 66 12.2 14.8 0.00 0.00 0.00 86 1009.5
20260507124215 60 60 11.3 13.9 0.00 0.00 0.00 86 1009.8
20260507123216 60 68 12.2 13.9 0.00 0.00 0.00 86 1009.7
20260507122216 60 58 11.3 13.9 0.00 0.00 0.00 84 1010.0
20260507121216 61 59 10.4 13.0 0.00 0.00 0.00 84 1010.1
20260507120217 60 60 10.4 12.2 0.00 0.00 0.00 84 1010.3
20260507115215 60 58 11.3 14.8 0.00 0.00 0.00 84 1010.2
20260507114215 60 62 12.2 13.9 0.00 0.00 0.00 84 1010.2
20260507113215 60 69 12.2 13.9 0.00 0.00 0.00 84 1010.3
20260507112216 60 54 11.3 13.0 0.00 0.00 0.00 86 1010.1
20260507111216 59 66 12.2 14.8 0.00 0.00 0.00 86 1010.3
20260507110217 59 64 13.0 15.6 0.00 0.00 0.00 87 1010.5
20260507104215 59 64 11.3 12.2 0.00 0.00 0.00 87 1010.7
20260507103215 59 71 9.6 12.2 0.00 0.00 0.00 86 1010.7
20260507102215 59 62 11.3 13.0 0.00 0.00 0.00 86 1010.7
20260507101216 59 61 10.4 13.0 0.00 0.00 0.00 86 1010.7
20260507100216 59 76 9.6 12.2 0.00 0.00 0.00 86 1010.9
20260507095217 59 66 7.8 11.3 0.00 0.00 0.00 85 1010.8
20260507094217 59 84 6.1 7.8 0.00 0.00 0.00 86 1010.9
20260507093215 59 102 7.0 8.7 0.00 0.00 0.00 86 1010.8
20260507092215 59 102 6.1 7.0 0.00 0.00 0.00 87 1010.9
20260507091215 58 68 7.8 10.4 0.00 0.00 0.00 86 1010.9
20260507090216 59 82 7.0 10.4 0.00 0.00 0.00 87 1010.8
20260507085216 58 73 8.7 9.6 0.00 0.00 0.00 86 1010.9
20260507084217 59 96 6.1 8.7 0.00 0.00 0.00 85 1010.9
20260507083217 59 79 6.1 7.8 0.00 0.00 0.00 86 1010.7
20260507082215 58 92 7.0 9.6 0.00 0.00 0.00 86 1010.8
20260507081215 59 92 7.0 8.7 0.00 0.00 0.00 86 1011.0